Regional Weather Roundup
Issued by NWS

Home | Current Version | Previous Version | Text Only | Print | Product List | Glossary Off
Versions: 1 2 3 4 5 6 7 8 9 10 11 12 13 14 15 16 17 18 19 20 21 22 23 24 25 26 27 28 29 30 31 32 33 34 35 36 37 38 39 40 41 42 43 44 45 46 47 48 49 50

000
ASUS43 KLMK 141910
RWRKY
KENTUCKY REGIONAL WEATHER ROUNDUP
NATIONAL WEATHER SERVICE LOUISVILLE KY
200 PM EST SUN FEB 14 2016

NOTE "FAIR" INDICATES FEW OR NO CLOUDS BELOW 12,000 FEET
WITH NO SIGNIFICANT WEATHER AND/OR OBSTRUCTIONS TO VISIBILITY.

KYZ001>023-026-027-061>063-070>075-142000-
WESTERN AND SOUTH CENTRAL KENTUCKY

CITY           SKY/WX    TMP DP  RH WIND       PRES   REMARKS
PADUCAH        FRZ RAIN  26  22  84 SE8       30.09F FOG     WCI  18
HENDERSON      CLOUDY    23  18  80 SE10      30.14F WCI  12
OWENSBORO      LGT SNOW  23  21  92 SE12      30.17F VSB 1   WCI  12
HOPKINSVILLE   FRZ RAIN  25  22  86 E8        30.13S WCI  16
BOWLING GREEN  SNOW      23  21  92 SE9       30.18F VSB 1/4 WCI  13
GLASGOW        SNOW      23  20  90 SE7       30.19F VSB 1/4 WCI  14
$$

KYZ024-025-028>034-038-045-046-053-142000-
NORTH CENTRAL KENTUCKY

CITY           SKY/WX    TMP DP  RH WIND       PRES   REMARKS
LOUISVILLE/SDF LGT SNOW  22  13  68 SE12      30.23F WCI  10
LOUISVILLE/LOU FLURRIES  21  14  74 SE7       30.23F WCI  12
FORT KNOX      FLURRIES  21  16  80 E10       30.16F WCI  10
$$

KYZ035>037-039>044-047>052-055>060-089>105-142000-
NORTHEAST KENTUCKY

CITY           SKY/WX    TMP DP  RH WIND       PRES   REMARKS
LEXINGTON      CLOUDY    21  11  65 SE10      30.22F WCI  10
COVINGTON      LGT SNOW  19  10  68 SE16      30.25F WCI   4
FRANKFORT      LGT SNOW  21  13  71 E10       30.20F WCI  10
$$

KYZ054-064>069-076>088-106>120-142000-
SOUTHEAST KENTUCKY

CITY           SKY/WX    TMP DP  RH WIND       PRES   REMARKS
JACKSON        CLOUDY    19  11  70 VRB5      30.24F WCI  12
LONDON         LGT SNOW  22  13  68 S7        30.24F WCI  13
SOMERSET       LGT SNOW  21  18  86 E6        30.26F VSB 3/4 WCI  14
MIDDLESBORO    CLOUDY    24   7  46 CALM      30.29S
MONTICELLO     SNOW      23  19  85 VRB6      30.25F VSB 1/2 WCI  16
$$




USA.gov is the U.S. government's official web portal to all federal, state and local government web resources and services.